FALCON 9 DEB (44775 NORAD) Tracking and Keplerian Element Data

This shows tracking and keplerian element data for the satellite.

Feedback or suggestion? Click here.




ElementValue
Catalog44775
NameFALCON 9 DEB
Epoch Orbit465
Epoch Day344.65328605
Epoch Year2019
RAAN21.281
Inclination53.0042
Eccentricity0.00106
Argument of Perigee63.7001
Mean Anonmoly296.5117
Mean Motion16.04490524
Decay Rate0.00169712
L11 44775U 19074BQ 19344.65328605 .00169712 24108-4 25073-3 0 9999
L22 44775 53.0042 21.2810 0010600 63.7001 296.5117 16.04490524 4652

Live tracking and technical data element details for FALCON 9 DEB (NORAD 44775). FALCON 9 DEB can be tracked NOW for your location showing map with azimuth and elevation plus other details from your city location.

Track the satellite on the map from your city or location and see movement details for azimuth, elevation, latitude, longitude, range, height, and movement on the map or in text.







IsCatalogInMostPopularTable: catalog: 44775, numindb: 47
Update: records affected: 1



GetName: 44775 FALCON 9 DEB

Hit Count: updated at: Sat, 28 Mar 2020 20:59:30 GMT